SCP
-0 0 0 0 0 0 0 0 0 0 -0 -0 0 0 0 0 -0 0 0 0 0 0 0 0 0 0 0 0 -0 0 0 0 0 0 0 0 0 0 0 0 0 0 0
-0 -0 0 0 0 0 0 0 0 0 0 0 0 0 0 0 0 0 0 0 0 0 0 0 0 0 0 0 0 -0 0 0 0 0 0 0 0 0 0 0 0 0 0
-0 -0 0 0 0 0 0 0 0 0 0 0 0 0 0 0 0 0 0 0 0 0 0 0 0 0 0 0 0 0 -0 0 0 0 0 0 0 0 0 0 0 0 0
-0 -0 -0 0 0 0 0 0 0 0 0 0 0 0 0 0 0 0 0 0 0 0 0 0 0 0 0 0 0 0 0 0 0 0 0 0 0 0 0 0 0 0 0
-0 -0 -0 -0 0 0 0 0 0 0 0 0 0 0 0 0 0 0 0 0 0 0 0 0 0 0 0 0 0 0 0 0 0 0 0 0 0 0 0 0 0 0 0
-0 -0 -0 -0 0 0 0 0 0 0 0 0 0 0 0 0 0 0 0 0 0 0 0 0 0 0 0 0 0 0 0 0 0 0 0 0 0 0 0 0 0 0 0
-0 -0 -0 -0 -0 0 0 0 0 0 0 0 0 0 0 0 0 0 0 0 0 0 0 0 0 0 0 0 0 0 0 0 0 0 0 0 0 0 0 0 0 0 0
-0 -0 -0 -0 -0 0 0 0 0 0 0 0 0 0 0 0 0 0 0 0 0 0 0 0 0 0 0 0 0 0 0 0 0 0 0 0 0 0 0 0 0 0 0
-0 -0 -0 -0 -0 -0 -0 0 0 0 0 0 0 0 0 0 0 0 0 0 0 0 0 0 0 0 0 0 0 0 0 0 0 0 0 0 0 0 0 0 0 0 0
-0 -0 -0 -0 -0 -0 -0 -0 -0 0 0 0 0 0 0 0 0 0 0 0 0 0 0 0 -0 -0 0 0 0 0 0 0 0 0 0 0 0 0 0 0 0 0 0
-0 -0 -0 -0 -0 -0 -0 -0 -0 -0 0 0 0 0 0 0 0 0 0 0 0 0 0 0 0 -0 -0 -0 0 0 0 0 0 0 0 0 0 0 0 0 0 0 0
-0 -0 -0 -0 -0 -0 -0 -0 -0 0 0 0 0 0 0 0 0 0 0 0 0 0 0 0 0 -0 -0 -0 -0 0 0 0 0 0 0 0 0 0 0 0 0 0 0
-0 -0 -0 -0 -0 -0 -0 -0 -0 0 0 0 0 0 0 0 0 0 0 0 0 0 0 0 0 -0 0 -0 -0 -0 0 0 0 0 0 0 0 0 0 0 0 0 0
0 -0 -0 -0 -0 -0 -0 -0 -0 -0 0 0 0 0 0 0 0 0 0 0 0 0 0 0 0 0 -0 0 0 0 0 0 0 0 0 0 0 0 0 0 0 0 0
0 -0 -0 -0 -0 -0 -0 -0 -0 0 0 0 0 0 0 0 0 0 0 0 0 0 0 0 0 0 0 -0 0 0 0 0 0 0 0 0 0 0 0 0 0 0 0
0 -0 -0 -0 -0 -0 -0 -0 0 0 0 0 0 0 0 0 0 0 0 0 0 0 0 0 0 0 0 -0 -0 0 0 0 0 0 0 0 0 0 0 0 0 0 0
0 0 -0 -0 -0 -0 -0 -0 0 0 0 0 0 0 0 0 0 0 0 0 0 0 0 0 0 0 0 0 0 0 0 0 0 0 0 0 0 0 0 0 0 0 0
0 0 0 -0 -0 -0 -0 -0 0 0 0 0 0 0 0 0 0 0 0 0 0 0 0 0 0 0 0 0 0 0 0 0 0 0 0 0 0 0 0 0 0 0 0
0 0 0 0 -0 -0 -0 0 0 0 0 0 0 0 0 0 0 0 0 0 0 0 0 0 0 0 0 0 0 0 0 0 0 0 0 0 0 0 0 0 0 0 0
0 0 0 0 0 0 -0 0 0 0 0 0 0 0 0 0 0 0 0 0 0 0 0 0 0 0 0 0 0 0 0 0 0 0 0 0 0 0 0 0 0 0 0
0 0 0 0 0 0 0 0 0 0 0 0 0 0 0 0 0 0 0 0 0 0 0 0 0 0 0 0 0 0 0 0 0 0 0 0 0 0 0 0 0 0 0
0 0 0 0 0 0 -0 0 0 0 0 0 0 0 0 0 0 0 0 0 0 0 0 0 0 0 0 0 0 0 0 0 0 0 0 0 0 0 0 0 0 0 0
0 0 0 0 0 0 0 0 0 0 0 0 0 0 0 0 0 0 0 0 0 0 0 0 0 0 0 0 0 0 0 0 0 0 0 0 0 0 0 0 0 0 0
0 0 0 0 0 0 0 -0 0 0 0 0 0 0 0 0 0 0 0 0 0 0 0 0 0 0 0 0 0 0 0 0 0 0 0 0 0 0 0 0 0 0 0
0 0 0 0 0 0 0 0 0 0 0 0 0 0 0 0 0 0 0 0 0 0 0 0 0 0 0 0 0 0 0 0 0 0 0 0 0 0 0 0 0 0 0
0 0 0 0 0 0 0 0 0 0 0 0 0 0 0 0 0 0 0 0 0 0 0 0 0 0 0 0 0 0 0 0 0 0 0 0 0 0 0 0 0 0 0
Wind_Speed_500mb
36 36 40 42 45 46 48 48 48 45 45 44 43 41 40 39 38 36 35 35 34 31 25 22 20 16 20 23 22 4 18 45 76 61 45 42 44 41 39 37 33 36 35
31 34 37 39 41 43 45 46 46 47 46 46 45 44 44 43 42 40 40 38 34 30 29 26 21 13 9 10 18 17 6 34 72 66 52 51 51 44 35 33 31 33 38
27 29 33 39 41 43 46 47 48 49 50 51 50 51 49 44 42 42 41 39 36 33 30 25 23 19 11 9 5 23 30 38 42 44 52 51 50 43 40 33 30 35 33
22 26 31 33 37 39 42 43 45 47 49 51 53 53 54 52 47 43 39 36 35 34 31 29 23 21 19 13 7 12 29 51 44 42 47 54 55 48 35 38 37 29 30
18 23 29 33 37 39 40 44 45 47 49 49 49 51 52 57 59 51 42 41 36 31 28 28 27 22 20 17 10 6 9 29 36 45 45 51 53 52 47 43 38 35 31
17 22 28 32 35 39 42 43 46 47 48 48 48 45 43 43 49 55 50 38 35 32 29 25 23 20 18 16 14 7 6 10 21 31 39 42 41 41 40 41 36 34 29
17 21 28 31 35 40 41 43 44 44 45 47 46 45 45 46 47 46 48 45 39 34 31 33 30 25 20 17 13 9 8 8 15 21 26 28 31 31 34 37 34 31 26
14 19 25 30 35 36 37 39 39 40 43 45 46 48 47 46 49 51 48 41 40 35 33 36 38 33 24 16 13 8 8 15 18 15 18 22 26 27 27 27 32 29 19
13 16 21 28 29 31 34 36 36 41 44 47 44 48 48 41 39 47 44 41 39 35 30 31 35 31 31 23 14 12 11 11 10 12 19 22 24 27 23 23 26 25 25
14 14 19 23 26 28 33 34 37 41 44 45 43 47 50 43 35 38 46 40 36 35 31 20 26 30 32 20 13 15 13 13 11 10 12 14 16 19 21 25 25 24 19
15 13 17 20 24 28 32 34 37 42 44 45 43 46 49 49 44 42 36 38 39 36 36 30 24 25 27 22 17 17 18 15 13 11 13 16 16 17 18 20 22 20 20
18 14 15 19 22 27 29 33 35 39 42 45 43 44 45 46 47 40 38 33 38 38 38 34 29 27 27 21 19 21 19 19 18 13 14 19 21 22 21 20 19 15 13
21 15 15 19 21 25 26 30 30 37 41 42 40 40 41 42 40 37 35 33 28 31 31 32 27 25 24 22 20 19 17 19 21 19 20 23 25 26 26 25 22 19 16
25 19 17 20 20 23 24 27 28 34 37 38 37 37 36 39 40 37 36 34 26 24 26 26 25 21 21 21 18 16 15 14 15 17 22 26 26 25 23 19 18 15 13
29 23 20 21 21 22 22 23 24 30 35 34 34 35 35 38 38 33 30 33 31 25 26 25 20 18 18 18 18 16 14 12 12 13 15 16 17 16 13 13 12 11 10
33 27 25 23 21 22 20 20 21 25 31 31 34 35 30 27 27 27 26 28 28 27 24 22 21 20 19 19 18 17 14 11 8 9 13 13 12 11 10 10 9 9 10
36 31 28 26 23 22 19 18 16 20 26 27 30 34 32 29 27 27 25 24 24 24 21 22 21 19 18 18 17 16 14 12 9 6 8 10 11 11 9 6 5 6 7
42 35 30 28 26 23 20 17 13 15 20 21 26 29 29 25 24 27 29 27 19 20 21 21 20 19 18 17 16 16 15 14 11 6 2 9 10 9 8 5 2 1 4
47 41 35 30 28 24 20 16 12 12 14 17 21 23 23 24 24 23 25 21 19 20 20 20 19 18 16 16 15 15 14 14 13 10 4 3 9 11 10 8 6 4 6
50 43 37 33 28 25 22 17 11 9 10 11 14 18 20 23 20 19 22 25 23 21 20 19 18 16 15 15 14 13 13 12 11 11 9 7 7 11 13 13 11 10 9
56 49 42 37 32 27 22 17 11 6 7 7 9 13 16 17 17 19 22 24 23 21 19 18 17 16 15 15 14 13 13 12 12 12 10 10 9 8 10 13 15 15 14
59 53 46 39 34 29 24 18 13 8 5 3 4 9 13 15 16 16 18 20 22 20 18 17 16 16 15 15 14 14 14 14 14 14 13 12 10 9 9 10 12 13 14
64 57 52 45 39 33 26 20 15 12 8 4 2 6 9 10 12 14 16 18 19 19 17 16 15 15 15 15 15 15 15 14 14 15 15 14 12 10 8 8 9 10 10
68 62 54 48 42 36 30 24 18 15 12 8 4 3 5 7 9 11 13 13 15 16 15 14 14 14 14 14 15 14 14 14 14 14 14 14 12 10 8 6 6 7 8
73 67 61 54 47 39 34 28 23 19 16 12 7 4 2 5 7 7 9 8 9 11 12 11 11 12 11 12 12 13 13 13 12 12 12 13 12 11 9 7 6 5 5
78 73 67 59 54 45 38 32 27 25 21 18 13 9 5 1 5 6 7 6 5 7 9 8 7 7 7 8 9 10 10 11 11 11 12 11 10 10 9 8 7 7 6
Wind_Direction_500mb
42 45 46 44 43 41 41 39 37 33 31 29 26 22 18 15 16 16 17 18 15 15 13 22 32 42 44 51 55 355 220 186 158 149 145 141 137 131 129 127 126 121 126
46 45 44 44 43 39 37 34 32 31 28 26 22 19 18 16 14 11 9 8 8 9 12 12 16 30 23 47 67 71 168 179 160 148 146 145 143 144 145 142 143 149 141
45 42 43 41 37 37 34 30 29 27 26 24 22 22 22 21 19 17 12 6 3 3 5 6 15 16 7 26 109 121 127 150 158 159 153 152 152 155 156 154 153 146 144
48 44 45 43 40 38 36 33 31 28 26 23 21 19 19 19 19 16 14 12 8 6 8 10 12 21 26 36 53 168 178 166 168 168 164 166 160 159 170 162 158 162 156
52 48 50 46 43 41 38 34 31 29 27 25 22 19 17 15 11 13 10 8 7 7 8 11 15 15 21 31 43 71 206 202 186 179 177 171 170 164 167 170 174 171 168
64 60 53 48 46 41 37 32 28 23 22 22 22 23 20 24 16 8 10 12 9 10 14 22 22 25 32 36 46 79 160 190 195 187 186 179 175 171 176 180 182 176 174
74 63 57 51 44 38 33 29 26 26 27 27 28 28 27 26 17 11 10 12 14 19 26 26 24 25 33 46 53 71 107 142 184 190 191 189 184 182 182 181 182 183 188
83 64 58 52 42 36 33 32 32 34 34 33 34 35 33 32 27 14 14 15 19 23 32 34 32 15 25 42 52 69 124 150 143 164 184 185 186 180 187 190 190 187 188
100 75 65 54 43 37 39 39 40 44 41 38 39 39 34 29 30 14 19 17 20 26 32 30 34 19 11 20 37 70 98 121 142 176 180 180 183 187 191 193 192 187 177
124 93 71 57 49 45 44 45 47 48 46 39 39 37 33 31 32 23 15 22 21 22 28 40 46 29 16 27 46 53 62 89 108 133 153 163 175 186 189 189 190 193 188
141 112 80 64 58 52 47 49 47 46 44 39 38 36 32 31 29 27 24 19 23 21 28 25 17 14 7 28 60 70 73 74 92 115 131 141 144 148 158 160 162 169 172
152 123 90 76 70 60 52 52 46 45 42 36 36 34 30 27 28 29 24 26 23 25 24 24 21 24 28 49 61 66 72 76 78 99 125 133 138 138 136 139 138 148 162
158 138 107 94 83 70 63 58 51 48 42 38 37 32 26 24 28 30 27 21 18 19 18 16 19 26 33 43 56 65 74 81 82 86 105 121 128 129 127 130 130 126 125
164 147 124 110 96 86 75 65 55 52 47 36 37 28 23 24 29 34 31 21 14 8 11 10 20 30 40 44 50 60 67 77 91 97 104 109 114 116 116 118 118 117 113
167 155 139 125 113 101 89 74 60 56 53 42 37 29 22 25 28 32 33 28 24 26 15 12 21 35 41 48 53 56 66 88 112 121 122 120 118 116 118 116 114 109 107
172 163 149 137 129 116 104 88 70 61 56 44 41 38 28 33 40 44 42 34 27 28 26 26 35 37 40 42 43 47 54 67 95 144 150 147 140 135 130 124 110 93 80
175 170 158 148 142 128 117 100 81 72 65 51 43 39 36 34 37 42 41 33 24 27 32 44 45 43 40 38 38 41 42 49 68 117 170 172 166 165 161 147 114 78 58
177 174 168 156 151 141 133 118 101 86 74 64 54 43 40 41 40 40 39 35 22 24 31 40 44 43 40 37 33 31 31 35 38 41 146 195 200 196 192 194 183 50 19
181 176 171 165 158 153 147 135 118 100 86 71 59 52 40 43 47 48 44 39 36 37 36 36 35 35 36 34 29 27 23 17 14 12 6 237 229 226 224 230 244 277 323
185 181 177 171 166 162 157 148 137 121 94 74 65 54 42 40 36 43 45 45 41 40 40 37 34 34 30 26 22 18 14 10 6 1 352 327 271 247 248 251 258 271 291
186 182 181 176 172 170 167 156 149 135 103 83 72 54 42 46 34 41 44 44 39 36 35 37 33 29 28 24 20 14 10 5 1 356 352 341 321 291 266 259 262 269 279
190 186 184 180 178 176 174 165 160 152 144 129 78 60 45 41 28 33 45 45 41 36 33 32 32 26 22 21 19 15 12 7 3 360 353 347 338 321 298 278 270 271 276
193 190 188 185 183 181 179 171 173 169 170 181 131 71 47 36 31 28 41 43 40 39 35 30 30 32 28 24 22 19 15 12 8 5 3 357 349 339 324 305 290 280 278
195 194 193 192 189 184 183 179 181 183 174 182 173 100 49 35 32 26 34 36 36 37 38 36 30 31 33 29 27 24 19 17 12 8 5 3 0 355 347 336 319 307 304
198 198 197 197 194 191 190 187 186 187 183 181 177 167 84 29 21 13 23 26 34 37 38 38 35 27 28 31 23 20 18 16 16 15 11 9 8 4 358 351 340 326 317
201 201 201 199 197 196 196 193 190 192 190 187 185 191 179 56 356 346 352 354 6 30 33 30 32 27 14 14 12 8 8 7 10 12 9 7 10 13 7 357 347 339 331
Wind_Speed_850mb
36 36 40 42 45 46 48 48 48 45 45 44 43 41 40 39 38 36 35 35 34 31 25 22 20 16 20 23 22 4 18 45 76 61 45 42 44 41 39 37 33 36 35
31 34 37 39 41 43 45 46 46 47 46 46 45 44 44 43 42 40 40 38 34 30 29 26 21 13 9 10 18 17 6 34 72 66 52 51 51 44 35 33 31 33 38
27 29 33 39 41 43 46 47 48 49 50 51 50 51 49 44 42 42 41 39 36 33 30 25 23 19 11 9 5 23 30 38 42 44 52 51 50 43 40 33 30 35 33
22 26 31 33 37 39 42 43 45 47 49 51 53 53 54 52 47 43 39 36 35 34 31 29 23 21 19 13 7 12 29 51 44 42 47 54 55 48 35 38 37 29 30
18 23 29 33 37 39 40 44 45 47 49 49 49 51 52 57 59 51 42 41 36 31 28 28 27 22 20 17 10 6 9 29 36 45 45 51 53 52 47 43 38 35 31
17 22 28 32 35 39 42 43 46 47 48 48 48 45 43 43 49 55 50 38 35 32 29 25 23 20 18 16 14 7 6 10 21 31 39 42 41 41 40 41 36 34 29
17 21 28 31 35 40 41 43 44 44 45 47 46 45 45 46 47 46 48 45 39 34 31 33 30 25 20 17 13 9 8 8 15 21 26 28 31 31 34 37 34 31 26
14 19 25 30 35 36 37 39 39 40 43 45 46 48 47 46 49 51 48 41 40 35 33 36 38 33 24 16 13 8 8 15 18 15 18 22 26 27 27 27 32 29 19
13 16 21 28 29 31 34 36 36 41 44 47 44 48 48 41 39 47 44 41 39 35 30 31 35 31 31 23 14 12 11 11 10 12 19 22 24 27 23 23 26 25 25
14 14 19 23 26 28 33 34 37 41 44 45 43 47 50 43 35 38 46 40 36 35 31 20 26 30 32 20 13 15 13 13 11 10 12 14 16 19 21 25 25 24 19
15 13 17 20 24 28 32 34 37 42 44 45 43 46 49 49 44 42 36 38 39 36 36 30 24 25 27 22 17 17 18 15 13 11 13 16 16 17 18 20 22 20 20
18 14 15 19 22 27 29 33 35 39 42 45 43 44 45 46 47 40 38 33 38 38 38 34 29 27 27 21 19 21 19 19 18 13 14 19 21 22 21 20 19 15 13
21 15 15 19 21 25 26 30 30 37 41 42 40 40 41 42 40 37 35 33 28 31 31 32 27 25 24 22 20 19 17 19 21 19 20 23 25 26 26 25 22 19 16
25 19 17 20 20 23 24 27 28 34 37 38 37 37 36 39 40 37 36 34 26 24 26 26 25 21 21 21 18 16 15 14 15 17 22 26 26 25 23 19 18 15 13
29 23 20 21 21 22 22 23 24 30 35 34 34 35 35 38 38 33 30 33 31 25 26 25 20 18 18 18 18 16 14 12 12 13 15 16 17 16 13 13 12 11 10
33 27 25 23 21 22 20 20 21 25 31 31 34 35 30 27 27 27 26 28 28 27 24 22 21 20 19 19 18 17 14 11 8 9 13 13 12 11 10 10 9 9 10
36 31 28 26 23 22 19 18 16 20 26 27 30 34 32 29 27 27 25 24 24 24 21 22 21 19 18 18 17 16 14 12 9 6 8 10 11 11 9 6 5 6 7
42 35 30 28 26 23 20 17 13 15 20 21 26 29 29 25 24 27 29 27 19 20 21 21 20 19 18 17 16 16 15 14 11 6 2 9 10 9 8 5 2 1 4
47 41 35 30 28 24 20 16 12 12 14 17 21 23 23 24 24 23 25 21 19 20 20 20 19 18 16 16 15 15 14 14 13 10 4 3 9 11 10 8 6 4 6
50 43 37 33 28 25 22 17 11 9 10 11 14 18 20 23 20 19 22 25 23 21 20 19 18 16 15 15 14 13 13 12 11 11 9 7 7 11 13 13 11 10 9
56 49 42 37 32 27 22 17 11 6 7 7 9 13 16 17 17 19 22 24 23 21 19 18 17 16 15 15 14 13 13 12 12 12 10 10 9 8 10 13 15 15 14
59 53 46 39 34 29 24 18 13 8 5 3 4 9 13 15 16 16 18 20 22 20 18 17 16 16 15 15 14 14 14 14 14 14 13 12 10 9 9 10 12 13 14
64 57 52 45 39 33 26 20 15 12 8 4 2 6 9 10 12 14 16 18 19 19 17 16 15 15 15 15 15 15 15 14 14 15 15 14 12 10 8 8 9 10 10
68 62 54 48 42 36 30 24 18 15 12 8 4 3 5 7 9 11 13 13 15 16 15 14 14 14 14 14 15 14 14 14 14 14 14 14 12 10 8 6 6 7 8
73 67 61 54 47 39 34 28 23 19 16 12 7 4 2 5 7 7 9 8 9 11 12 11 11 12 11 12 12 13 13 13 12 12 12 13 12 11 9 7 6 5 5
78 73 67 59 54 45 38 32 27 25 21 18 13 9 5 1 5 6 7 6 5 7 9 8 7 7 7 8 9 10 10 11 11 11 12 11 10 10 9 8 7 7 6
Wind_Direction_850mb
42 45 46 44 43 41 41 39 37 33 31 29 26 22 18 15 16 16 17 18 15 15 13 22 32 42 44 51 55 355 220 186 158 149 145 141 137 131 129 127 126 121 126
46 45 44 44 43 39 37 34 32 31 28 26 22 19 18 16 14 11 9 8 8 9 12 12 16 30 23 47 67 71 168 179 160 148 146 145 143 144 145 142 143 149 141
45 42 43 41 37 37 34 30 29 27 26 24 22 22 22 21 19 17 12 6 3 3 5 6 15 16 7 26 109 121 127 150 158 159 153 152 152 155 156 154 153 146 144
48 44 45 43 40 38 36 33 31 28 26 23 21 19 19 19 19 16 14 12 8 6 8 10 12 21 26 36 53 168 178 166 168 168 164 166 160 159 170 162 158 162 156
52 48 50 46 43 41 38 34 31 29 27 25 22 19 17 15 11 13 10 8 7 7 8 11 15 15 21 31 43 71 206 202 186 179 177 171 170 164 167 170 174 171 168
64 60 53 48 46 41 37 32 28 23 22 22 22 23 20 24 16 8 10 12 9 10 14 22 22 25 32 36 46 79 160 190 195 187 186 179 175 171 176 180 182 176 174
74 63 57 51 44 38 33 29 26 26 27 27 28 28 27 26 17 11 10 12 14 19 26 26 24 25 33 46 53 71 107 142 184 190 191 189 184 182 182 181 182 183 188
83 64 58 52 42 36 33 32 32 34 34 33 34 35 33 32 27 14 14 15 19 23 32 34 32 15 25 42 52 69 124 150 143 164 184 185 186 180 187 190 190 187 188
100 75 65 54 43 37 39 39 40 44 41 38 39 39 34 29 30 14 19 17 20 26 32 30 34 19 11 20 37 70 98 121 142 176 180 180 183 187 191 193 192 187 177
124 93 71 57 49 45 44 45 47 48 46 39 39 37 33 31 32 23 15 22 21 22 28 40 46 29 16 27 46 53 62 89 108 133 153 163 175 186 189 189 190 193 188
141 112 80 64 58 52 47 49 47 46 44 39 38 36 32 31 29 27 24 19 23 21 28 25 17 14 7 28 60 70 73 74 92 115 131 141 144 148 158 160 162 169 172
152 123 90 76 70 60 52 52 46 45 42 36 36 34 30 27 28 29 24 26 23 25 24 24 21 24 28 49 61 66 72 76 78 99 125 133 138 138 136 139 138 148 162
158 138 107 94 83 70 63 58 51 48 42 38 37 32 26 24 28 30 27 21 18 19 18 16 19 26 33 43 56 65 74 81 82 86 105 121 128 129 127 130 130 126 125
164 147 124 110 96 86 75 65 55 52 47 36 37 28 23 24 29 34 31 21 14 8 11 10 20 30 40 44 50 60 67 77 91 97 104 109 114 116 116 118 118 117 113
167 155 139 125 113 101 89 74 60 56 53 42 37 29 22 25 28 32 33 28 24 26 15 12 21 35 41 48 53 56 66 88 112 121 122 120 118 116 118 116 114 109 107
172 163 149 137 129 116 104 88 70 61 56 44 41 38 28 33 40 44 42 34 27 28 26 26 35 37 40 42 43 47 54 67 95 144 150 147 140 135 130 124 110 93 80
175 170 158 148 142 128 117 100 81 72 65 51 43 39 36 34 37 42 41 33 24 27 32 44 45 43 40 38 38 41 42 49 68 117 170 172 166 165 161 147 114 78 58
177 174 168 156 151 141 133 118 101 86 74 64 54 43 40 41 40 40 39 35 22 24 31 40 44 43 40 37 33 31 31 35 38 41 146 195 200 196 192 194 183 50 19
181 176 171 165 158 153 147 135 118 100 86 71 59 52 40 43 47 48 44 39 36 37 36 36 35 35 36 34 29 27 23 17 14 12 6 237 229 226 224 230 244 277 323
185 181 177 171 166 162 157 148 137 121 94 74 65 54 42 40 36 43 45 45 41 40 40 37 34 34 30 26 22 18 14 10 6 1 352 327 271 247 248 251 258 271 291
186 182 181 176 172 170 167 156 149 135 103 83 72 54 42 46 34 41 44 44 39 36 35 37 33 29 28 24 20 14 10 5 1 356 352 341 321 291 266 259 262 269 279
190 186 184 180 178 176 174 165 160 152 144 129 78 60 45 41 28 33 45 45 41 36 33 32 32 26 22 21 19 15 12 7 3 360 353 347 338 321 298 278 270 271 276
193 190 188 185 183 181 179 171 173 169 170 181 131 71 47 36 31 28 41 43 40 39 35 30 30 32 28 24 22 19 15 12 8 5 3 357 349 339 324 305 290 280 278
195 194 193 192 189 184 183 179 181 183 174 182 173 100 49 35 32 26 34 36 36 37 38 36 30 31 33 29 27 24 19 17 12 8 5 3 0 355 347 336 319 307 304
198 198 197 197 194 191 190 187 186 187 183 181 177 167 84 29 21 13 23 26 34 37 38 38 35 27 28 31 23 20 18 16 16 15 11 9 8 4 358 351 340 326 317
201 201 201 199 197 196 196 193 190 192 190 187 185 191 179 56 356 346 352 354 6 30 33 30 32 27 14 14 12 8 8 7 10 12 9 7 10 13 7 357 347 339 331